{"data":{"norad_id":52690,"epoch":"2026-09-20T05:05:25.061568Z","epoch_age_seconds":91315,"freshness":"FRESH","line1":"1 52690U 22053AL  26263.21209562 -.00000081  00000+0  99894-5 0  9993","line2":"2 52690  53.1594 345.3112 0001416  82.7847 277.3313 15.26513369240551","mean_motion":15.26513369,"eccentricity":0.0001416,"inclination_deg":53.1594,"raan_deg":345.3112,"arg_perigee_deg":82.7847,"mean_anomaly_deg":277.3313,"bstar":9.9894e-6,"rev_number":24055,"period_min":94.332616355881,"perigee_km":485.27283609298,"apogee_km":487.21682902796,"semimajor_km":6864.3818325605,"source":"CELESTRAK","updated_at":"2026-09-20T09:00:40.106704Z"}}